This is the latest recevied weather packets stored in our database for station/object N3AVN. If no packets are shown the sender has not sent any weather packets the latest 10 day(s).
| Time | Temp. | Humidity | Pressure | Rain* | Wind** | Luminosity | Snow |
|---|---|---|---|---|---|---|---|
| 1777928323 | 22.22° C | 32% | 1006.2 hPa | 0 mm | - | 142 W/m² | - |
| 1777928020 | 22.22° C | 33% | 1006.4 hPa | 0 mm | - | 130 W/m² | - |
| 1777927718 | 22.22° C | 32% | 1006.2 hPa | 0 mm | - | 97 W/m² | - |
| 1777927417 | 23.33° C | 30% | 1006.4 hPa | 0 mm | - | 124 W/m² | - |
| 1777927116 | 23.33° C | 32% | 1006.2 hPa | 0 mm | - | 465 W/m² | - |
| 1777926812 | 22.78° C | 33% | 1006.3 hPa | 0 mm | - | 351 W/m² | - |
| 1777926508 | 22.78° C | 32% | 1006.2 hPa | 0 mm | - | 372 W/m² | - |
| 1777926206 | 22.78° C | 31% | 1006.4 hPa | 0 mm | - | 121 W/m² | - |
| 1777925902 | 23.33° C | 30% | 1006.3 hPa | 0 mm | - | 400 W/m² | - |
| 1777925599 | 23.89° C | 31% | 1006.3 hPa | 0 mm | - | 439 W/m² | - |
| 1777925297 | 22.78° C | 31% | 1006.6 hPa | 0 mm | - | 483 W/m² | - |
| 1777924993 | 23.33° C | 30% | 1006.4 hPa | 0 mm | - | 482 W/m² | - |
| 1777924689 | 23.33° C | 31% | 1006.5 hPa | 0 mm | - | 498 W/m² | - |
| 1777924385 | 22.78° C | 32% | 1006.5 hPa | 0 mm | - | 456 W/m² | - |
| 1777924082 | 23.33° C | 31% | 1006.4 hPa | 0 mm | - | 554 W/m² | - |
| 1777923778 | 23.89° C | 32% | 1006.4 hPa | 0 mm | - | 549 W/m² | - |
| 1777923474 | 22.78° C | 32% | 1006.6 hPa | 0 mm | - | 493 W/m² | - |
| 1777923172 | 23.33° C | 32% | 1006.7 hPa | 0 mm | - | 499 W/m² | - |
| 1777922870 | 22.78° C | 31% | 1006.8 hPa | 0 mm | - | 456 W/m² | - |
| 1777922568 | 22.78° C | 31% | 1006.8 hPa | 0 mm | - | 586 W/m² | - |
| 1777922267 | 23.33° C | 32% | 1006.6 hPa | 0 mm | - | 502 W/m² | - |
| 1777921963 | 22.78° C | 32% | 1006.6 hPa | 0 mm | - | 630 W/m² | - |
| 1777921659 | 23.33° C | 33% | 1006.9 hPa | 0 mm | - | 615 W/m² | - |
| 1777921355 | 23.33° C | 31% | 1006.7 hPa | 0 mm | - | 596 W/m² | - |
| 1777921052 | 22.22° C | 31% | 1006.8 hPa | 0 mm | - | 632 W/m² | - |
* Rain latest hour (hover to see other rain measurements)
** Current wind speed in m/s (hover to see current wind gust speed)